Back to catalog

STARLINK-37024

AliveCommunicationsSSO
NORAD 68106·PAYLOAD·🇺🇸 United States

Launched Mar 8, 2026 from Vandenberg Space Force Base

Loading…

Next Passes (next 24 hours)

TLE

FreshSource: CelesTrak SupGP

Epoch: Sep 14, 2026, 22:55 UTC

1 68106C 26044F   26257.95534722 -.00054168  00000+0 -16817-2 0  2573
2 68106  97.2850 216.9442 0001831  86.4950 335.1123 15.33462894    11

Track STARLINK-37024 in real time with AllMySat

Download on the App Store